• In Belarus
  • List of Countries
  • For 7 days
  • Water Temperature
  • Satellite Maps
  • Weather Map
  • Weather Widgets
  • user-avatar
    Login

    Hourly Weather Orange Walk

    Today, 23 May, Wednesday

    Time Temperature Precipitation Wind Pressure Humidity
    00:00 +26°C° 0 mm 1 mps 755 mmHg 96%
    01:00 +26°C° 0.3 mm 1 mps 755 mmHg 97%
    02:00 +26°C° 0.3 mm 1 mps 755 mmHg 98%
    03:00 +25°C° 0.3 mm 1 mps 755 mmHg 98%
    04:00 +25°C° 0 mm 1 mps 755 mmHg 98%
    05:00 +26°C° 0 mm 1 mps 755 mmHg 97%
    06:00 +26°C° 0 mm 1 mps 756 mmHg 96%
    07:00 +26°C° 0.1 mm 0 mps 756 mmHg 84%
    08:00 +29°C° 0.1 mm 0 mps 756 mmHg 72%
    09:00 +32°C° 0.1 mm 0 mps 757 mmHg 60%
    10:00 +33°C° 0.2 mm 0 mps 756 mmHg 56%
    11:00 +36°C° 0.2 mm 1 mps 756 mmHg 51%
    12:00 +37°C° 0.2 mm 1 mps 756 mmHg 47%
    13:00 +36°C° 0.6 mm 1 mps 755 mmHg 53%
    14:00 +35°C° 0.6 mm 1 mps 755 mmHg 59%
    15:00 +34°C° 0.6 mm 1 mps 754 mmHg 65%
    16:00 +32°C° 1.9 mm 2 mps 755 mmHg 73%
    17:00 +30°C° 1.9 mm 2 mps 755 mmHg 82%
    18:00 +29°C° 1.9 mm 2 mps 755 mmHg 90%
    19:00 +28°C° 1.1 mm 2 mps 755 mmHg 91%
    20:00 +27°C° 1.1 mm 2 mps 756 mmHg 93%
    21:00 +27°C° 1.1 mm 2 mps 756 mmHg 94%
    22:00 +26°C° 0.4 mm 1 mps 757 mmHg 95%
    23:00 +26°C° 0.4 mm 1 mps 757 mmHg 95%

    Tomorrow, 24 May, Thursday

    Time Temperature Precipitation Wind Pressure Humidity
    00:00 +26°C° 0.4 mm 1 mps 757 mmHg 96%
    01:00 +26°C° 0 mm 1 mps 756 mmHg 96%
    02:00 +26°C° 0 mm 1 mps 756 mmHg 97%
    03:00 +24°C° 0 mm 0 mps 755 mmHg 97%
    04:00 +24°C° 0.1 mm 0 mps 756 mmHg 97%
    05:00 +24°C° 0.1 mm 0 mps 756 mmHg 97%
    06:00 +24°C° 0.1 mm 0 mps 756 mmHg 97%
    07:00 +28°C° 0.7 mm 1 mps 756 mmHg 88%
    08:00 +30°C° 0.7 mm 1 mps 757 mmHg 80%
    09:00 +32°C° 0.7 mm 1 mps 757 mmHg 72%
    10:00 +33°C° 0.4 mm 1 mps 757 mmHg 66%
    11:00 +35°C° 0.4 mm 1 mps 756 mmHg 59%
    12:00 +36°C° 0.4 mm 1 mps 756 mmHg 53%
    13:00 +35°C° 1.5 mm 1 mps 755 mmHg 59%
    14:00 +34°C° 1.5 mm 1 mps 755 mmHg 64%
    15:00 +33°C° 1.5 mm 1 mps 754 mmHg 70%
    16:00 +32°C° 1.9 mm 1 mps 754 mmHg 77%
    17:00 +30°C° 1.9 mm 1 mps 755 mmHg 84%
    18:00 +29°C° 1.9 mm 1 mps 755 mmHg 91%
    19:00 +28°C° 2.1 mm 1 mps 755 mmHg 92%
    20:00 +27°C° 2.1 mm 1 mps 756 mmHg 93%
    21:00 +27°C° 2.1 mm 1 mps 756 mmHg 94%
    22:00 +26°C° 0.4 mm 1 mps 756 mmHg 95%
    23:00 +26°C° 0.4 mm 1 mps 756 mmHg 96%

    Day after tomorrow, 25 May, Friday

    Time Temperature Precipitation Wind Pressure Humidity
    00:00 +26°C° 0.4 mm 1 mps 756 mmHg 97%
    01:00 +26°C° 0 mm 1 mps 756 mmHg 97%
    02:00 +26°C° 0 mm 1 mps 755 mmHg 98%
    03:00 +25°C° 0 mm 1 mps 755 mmHg 98%
    04:00 +25°C° 0 mm 1 mps 755 mmHg 98%
    05:00 +25°C° 0 mm 1 mps 755 mmHg 98%
    06:00 +25°C° 0 mm 2 mps 755 mmHg 98%
    07:00 +27°C° 0.2 mm 2 mps 755 mmHg 88%
    08:00 +30°C° 0.2 mm 2 mps 755 mmHg 78%
    09:00 +32°C° 0.2 mm 2 mps 756 mmHg 68%
    10:00 +34°C° 0.4 mm 2 mps 755 mmHg 63%
    11:00 +35°C° 0.4 mm 2 mps 755 mmHg 58%
    12:00 +35°C° 0.4 mm 1 mps 754 mmHg 53%
    13:00 +35°C° 0.4 mm 1 mps 754 mmHg 57%
    14:00 +34°C° 0.4 mm 1 mps 753 mmHg 61%
    15:00 +34°C° 0.4 mm 1 mps 752 mmHg 65%
    16:00 +32°C° 1.6 mm 1 mps 752 mmHg 73%
    17:00 +30°C° 1.6 mm 1 mps 753 mmHg 81%
    18:00 +29°C° 1.6 mm 1 mps 753 mmHg 90%
    19:00 +28°C° 0.8 mm 1 mps 753 mmHg 91%
    20:00 +27°C° 0.8 mm 1 mps 754 mmHg 93%
    21:00 +26°C° 0.8 mm 1 mps 754 mmHg 95%
    22:00 +26°C° 0 mm 1 mps 754 mmHg 95%
    23:00 +26°C° 0 mm 1 mps 754 mmHg 96%

    26 May, Saturday

    Time Temperature Precipitation Wind Pressure Humidity
    00:00 +25°C° 0 mm 1 mps 754 mmHg 96%
    01:00 +25°C° 0 mm 1 mps 754 mmHg 97%
    02:00 +25°C° 0 mm 1 mps 753 mmHg 97%
    03:00 +25°C° 0 mm 1 mps 753 mmHg 98%
    04:00 +25°C° 0 mm 1 mps 753 mmHg 97%
    05:00 +25°C° 0 mm 1 mps 753 mmHg 97%
    06:00 +25°C° 0 mm 1 mps 754 mmHg 96%
    07:00 +27°C° 0 mm 1 mps 754 mmHg 86%
    08:00 +29°C° 0 mm 1 mps 754 mmHg 76%
    09:00 +32°C° 0 mm 2 mps 754 mmHg 65%
    10:00 +34°C° 0 mm 2 mps 754 mmHg 60%
    11:00 +34°C° 0 mm 1 mps 753 mmHg 54%
    12:00 +35°C° 0 mm 1 mps 753 mmHg 49%
    13:00 +36°C° 0 mm 1 mps 752 mmHg 46%
    14:00 +37°C° 0 mm 1 mps 751 mmHg 44%
    15:00 +37°C° 0 mm 1 mps 751 mmHg 41%
    16:00 +36°C° 0.1 mm 2 mps 751 mmHg 49%
    17:00 +35°C° 0.1 mm 2 mps 751 mmHg 58%
    18:00 +32°C° 0.1 mm 2 mps 752 mmHg 66%
    19:00 +30°C° 0.5 mm 2 mps 752 mmHg 74%
    20:00 +29°C° 0.5 mm 2 mps 753 mmHg 82%
    21:00 +27°C° 0.5 mm 1 mps 754 mmHg 90%
    22:00 +27°C° 0.2 mm 1 mps 754 mmHg 92%
    23:00 +24°C° 0.2 mm 0 mps 753 mmHg 93%

    27 May, Sunday

    Time Temperature Precipitation Wind Pressure Humidity
    00:00 +24°C° 0.2 mm 0 mps 753 mmHg 94%
    01:00 +24°C° 0 mm 0 mps 753 mmHg 95%
    02:00 +23°C° 0 mm 0 mps 753 mmHg 96%
    03:00 +25°C° 0 mm 1 mps 753 mmHg 96%
    04:00 +25°C° 0 mm 1 mps 753 mmHg 96%
    05:00 +25°C° 0 mm 1 mps 753 mmHg 95%
    06:00 +25°C° 0 mm 1 mps 754 mmHg 94%
    07:00 +28°C° 0 mm 1 mps 754 mmHg 82%
    08:00 +30°C° 0 mm 1 mps 754 mmHg 70%
    09:00 +33°C° 0 mm 1 mps 754 mmHg 58%
    10:00 +35°C° 0 mm 1 mps 754 mmHg 51%
    11:00 +37°C° 0 mm 1 mps 753 mmHg 44%
    12:00 +39°C° 0 mm 1 mps 753 mmHg 37%
    13:00 +39°C° 0 mm 1 mps 752 mmHg 35%
    14:00 +40°C° 0 mm 1 mps 751 mmHg 34%
    15:00 +40°C° 0 mm 1 mps 751 mmHg 33%
    16:00 +37°C° 0 mm 1 mps 751 mmHg 40%
    17:00 +36°C° 0 mm 2 mps 752 mmHg 48%
    18:00 +34°C° 0 mm 2 mps 752 mmHg 56%
    19:00 +31°C° 0.2 mm 2 mps 753 mmHg 65%
    20:00 +30°C° 0.2 mm 2 mps 753 mmHg 75%
    21:00 +28°C° 0.2 mm 2 mps 754 mmHg 85%
    22:00 +28°C° 0.5 mm 1 mps 754 mmHg 87%
    23:00 +27°C° 0.5 mm 1 mps 754 mmHg 90%

    28 May, Monday

    Time Temperature Precipitation Wind Pressure Humidity
    00:00 +27°C° 0.5 mm 1 mps 754 mmHg 92%
    01:00 +27°C° 0 mm 1 mps 754 mmHg 93%
    02:00 +26°C° 0 mm 1 mps 754 mmHg 93%
    03:00 +26°C° 0 mm 1 mps 753 mmHg 94%
    04:00 +26°C° 0 mm 1 mps 754 mmHg 93%
    05:00 +24°C° 0 mm 0 mps 754 mmHg 93%
    06:00 +25°C° 0 mm 0 mps 754 mmHg 92%
    07:00 +27°C° 0.1 mm 0 mps 754 mmHg 81%
    08:00 +31°C° 0.1 mm 1 mps 755 mmHg 70%
    09:00 +34°C° 0.1 mm 1 mps 755 mmHg 59%
    10:00 +36°C° 0 mm 1 mps 755 mmHg 52%
    11:00 +39°C° 0 mm 1 mps 754 mmHg 44%
    12:00 +41°C° 0 mm 1 mps 754 mmHg 37%
    13:00 +40°C° 0 mm 1 mps 753 mmHg 39%
    14:00 +39°C° 0 mm 1 mps 753 mmHg 41%
    15:00 +38°C° 0 mm 2 mps 752 mmHg 44%
    16:00 +36°C° 0 mm 2 mps 752 mmHg 50%
    17:00 +35°C° 0 mm 2 mps 752 mmHg 55%
    18:00 +34°C° 0 mm 2 mps 753 mmHg 61%
    19:00 +31°C° 0 mm 2 mps 753 mmHg 67%
    20:00 +30°C° 0 mm 2 mps 754 mmHg 73%
    21:00 +28°C° 0 mm 2 mps 754 mmHg 79%
    22:00 +28°C° 0 mm 1 mps 754 mmHg 82%
    23:00 +28°C° 0 mm 1 mps 754 mmHg 84%
    Show more